Weather History for Cooperstown, ND

Change the Weather History Date:

Sunday, July 22, 2012

  Actual Average (KJMS) Record (KJMS)
Temperature  
Mean Temperature 78 °F 70 °F  
Max Temperature 95 °F 83 °F 107 °F (1940)
Min Temperature 62 °F 58 °F 43 °F (1909)
Degree Days  
Heating Degree Days 0 0  
Month to date heating degree days 19  
Since 1 June heating degree days 116  
Since 1 July heating degree days 19  
Cooling Degree Days 14 6  
Month to date cooling degree days 121  
Year to date cooling degree days 221  
Since 1 June cooling degree days 201  
Growing Degree Days 28 (Base 50)    
Moisture  
Dew Point 64 °F    
Average Humidity 67    
Maximum Humidity 100    
Minimum Humidity 30    
Precipitation  
Precipitation 0.00 in 0.09 in 1.20 in (1965)
Month to date precipitation 2.57  
Year to date precipitation 11.31  
Sea Level Pressure  
Sea Level Pressure 29.91 in    
Wind  
Wind Speed 6 mph (West)    
Max Wind Speed 15 mph    
Max Gust Speed 20 mph    
Visibility 10 miles    
Events      
T = Trace of Precipitation, MM = Missing Value Source: NWS Daily Summary

Daily Weather History Graph

Daily Weather History Graph

Search for Another Location

Airport:

Trip Planner

Search our weather history database for the weather conditions in past years. The results will help you decide how hot, cold, wet, or windy it might be!

Date:

Astronomy

Jul. 22, 2012 Rise Set
Actual Time 5:59 AM CDT 9:18 PM CDT
Civil Twilight 5:21 AM CDT 9:55 PM CDT
Nautical Twilight 4:32 AM CDT 10:44 PM CDT
Astronomical Twilight 3:29 AM CDT 11:46 PM CDT
Moon 10:06 AM CDT 10:38 PM CDT
Length of Visible Light 16h 33m
Length of Day
15h 19m
Waxing Crescent, 13% of the Moon is Illuminated
Jul 22
Waxing Crescent
Jul 26
First Quarter
Aug 1
Full
Aug 9
Last Quarter
Aug 17
New

Hourly Weather History & Observations

Time (CDT) Temp. Heat Index Dew Point Humidity Pressure Visibility Wind Dir Wind Speed Gust Speed Precip Events Conditions
12:15 AM 64.4 °F - 59.0 °F 83% 29.98 in 10.0 mi SE 4.6 mph - N/A   Clear
12:35 AM 64.4 °F - 57.2 °F 77% 29.97 in 10.0 mi SE 4.6 mph - N/A   Clear
12:55 AM 64.4 °F - 59.0 °F 83% 29.97 in 10.0 mi SE 5.8 mph - N/A   Clear
1:15 AM 62.6 °F - 59.0 °F 88% 29.96 in 10.0 mi SE 5.8 mph - N/A   Clear
1:35 AM 62.6 °F - 59.0 °F 88% 29.96 in 10.0 mi ESE 3.5 mph - N/A   Clear
1:55 AM 64.4 °F - 57.2 °F 77% 29.96 in 10.0 mi Calm Calm - N/A   Clear
2:15 AM 62.6 °F - 59.0 °F 88% 29.95 in 10.0 mi ESE 4.6 mph - N/A   Clear
2:35 AM 62.6 °F - 59.0 °F 88% 29.95 in 10.0 mi ESE 4.6 mph - N/A   Clear
2:55 AM 62.6 °F - 59.0 °F 88% 29.96 in 10.0 mi Calm Calm - N/A   Clear
3:35 AM 62.6 °F - 59.0 °F 88% 29.95 in 10.0 mi South 3.5 mph - N/A   Clear
3:55 AM 62.6 °F - 59.0 °F 88% 29.95 in 10.0 mi Calm Calm - N/A   Clear
4:15 AM 62.6 °F - 59.0 °F 88% 29.94 in 10.0 mi SSE 3.5 mph - N/A   Clear
4:55 AM 62.6 °F - 60.8 °F 94% 29.92 in 10.0 mi SSE 4.6 mph - N/A   Clear
5:15 AM 62.6 °F - 60.8 °F 94% 29.91 in 10.0 mi SSE 5.8 mph - N/A   Clear
5:35 AM 62.6 °F - 60.8 °F 94% 29.91 in 10.0 mi South 4.6 mph - N/A   Clear
5:55 AM 62.6 °F - 60.8 °F 94% 29.91 in 10.0 mi SSW 4.6 mph - N/A   Clear
6:15 AM 62.6 °F - 62.6 °F 100% 29.90 in 10.0 mi South 4.6 mph - N/A   Clear
6:35 AM 64.4 °F - 64.4 °F 100% 29.90 in 10.0 mi South 5.8 mph - N/A   Clear
7:15 AM 68.0 °F - 66.2 °F 94% 29.90 in 10.0 mi South 8.1 mph - N/A   Clear
7:55 AM 71.6 °F - 69.8 °F 94% 29.89 in 10.0 mi South 6.9 mph - N/A   Clear
8:15 AM 73.4 °F - 71.6 °F 94% 29.90 in 10.0 mi SW 6.9 mph - N/A   Clear
8:35 AM 75.2 °F - 71.6 °F 89% 29.90 in 10.0 mi SSW 6.9 mph - N/A   Clear
8:55 AM 77.0 °F - 73.4 °F 89% 29.90 in 10.0 mi SSW 5.8 mph - N/A   Clear
9:15 AM 78.8 °F - 73.4 °F 83% 29.90 in 10.0 mi SSW 6.9 mph - N/A   Clear
9:35 AM 82.4 °F 88.2 °F 73.4 °F 74% 29.90 in 10.0 mi SW 8.1 mph - N/A   Clear
10:15 AM 84.2 °F 92.3 °F 75.2 °F 74% 29.89 in 10.0 mi WSW 8.1 mph - N/A   Clear
10:35 AM 84.2 °F 92.3 °F 75.2 °F 74% 29.88 in 10.0 mi WSW 5.8 mph - N/A   Clear
10:55 AM 86.0 °F 95.1 °F 75.2 °F 70% 29.89 in 10.0 mi WSW 9.2 mph - N/A   Clear
11:15 AM 89.6 °F 99.8 °F 75.2 °F 62% 29.89 in 10.0 mi West 9.2 mph - N/A   Clear
11:35 AM 87.8 °F 97.6 °F 75.2 °F 66% 29.89 in 10.0 mi West 12.7 mph 19.6 mph N/A   Clear
11:55 AM 89.6 °F 99.8 °F 75.2 °F 62% 29.89 in 10.0 mi WNW 12.7 mph - N/A   Clear
12:15 PM 89.6 °F 99.8 °F 75.2 °F 62% 29.89 in 10.0 mi WNW 11.5 mph 16.1 mph N/A   Clear
12:35 PM 91.4 °F 102.5 °F 75.2 °F 59% 29.89 in 10.0 mi West 10.4 mph - N/A   Clear
12:55 PM 91.4 °F 102.5 °F 75.2 °F 59% 29.89 in 10.0 mi NW 12.7 mph 17.3 mph N/A   Clear
1:15 PM 91.4 °F 98.4 °F 71.6 °F 52% 29.89 in 10.0 mi WNW 10.4 mph 17.3 mph N/A   Clear
1:35 PM 93.2 °F 100.5 °F 71.6 °F 49% 29.89 in 10.0 mi West 11.5 mph - N/A   Clear
1:55 PM 93.2 °F 97.7 °F 68.0 °F 44% 29.89 in 10.0 mi NW 12.7 mph 17.3 mph N/A   Clear
2:15 PM 93.2 °F 97.7 °F 68.0 °F 44% 29.88 in 10.0 mi NNW 9.2 mph - N/A   Clear
2:35 PM 93.2 °F 97.7 °F 68.0 °F 44% 29.88 in 10.0 mi NNW 12.7 mph 18.4 mph N/A   Clear
2:55 PM 95.0 °F 98.5 °F 66.2 °F 39% 29.88 in 10.0 mi North 11.5 mph - N/A   Clear
3:15 PM 95.0 °F 97.0 °F 64.4 °F 36% 29.88 in 10.0 mi NW 12.7 mph 18.4 mph N/A   Clear
3:35 PM 93.2 °F 94.9 °F 64.4 °F 38% 29.88 in 10.0 mi North - - N/A   Clear
3:55 PM 95.0 °F 95.2 °F 60.8 °F 32% 29.89 in 10.0 mi North - - N/A   Clear
4:15 PM 93.2 °F 93.3 °F 60.8 °F 34% 29.89 in 10.0 mi NNW 15.0 mph 19.6 mph N/A   Clear
4:55 PM 93.2 °F 92.6 °F 59.0 °F 32% 29.89 in 10.0 mi WNW 11.5 mph 17.3 mph N/A   Clear
5:15 PM 93.2 °F 91.9 °F 57.2 °F 30% 29.88 in 10.0 mi WNW 11.5 mph - N/A   Clear
5:35 PM 93.2 °F 92.6 °F 59.0 °F 32% 29.88 in 10.0 mi WNW 11.5 mph 16.1 mph N/A   Clear
5:55 PM 91.4 °F 90.7 °F 59.0 °F 34% 29.87 in 10.0 mi WNW 13.8 mph 17.3 mph N/A   Clear
6:15 PM 91.4 °F 89.9 °F 57.2 °F 31% 29.87 in 10.0 mi WNW 10.4 mph 18.4 mph N/A   Clear
6:35 PM 91.4 °F 89.9 °F 57.2 °F 31% 29.87 in 10.0 mi WNW 9.2 mph 18.4 mph N/A   Clear
6:55 PM 89.6 °F 87.7 °F 55.4 °F 31% 29.88 in 10.0 mi NW 11.5 mph 19.6 mph N/A   Clear
7:15 PM 89.6 °F 88.1 °F 57.2 °F 33% 29.90 in 10.0 mi NW 8.1 mph - N/A   Clear
7:35 PM 87.8 °F 87.1 °F 59.0 °F 38% 29.89 in 10.0 mi WNW 5.8 mph - N/A   Clear
7:55 PM 86.0 °F 86.1 °F 60.8 °F 43% 29.91 in 10.0 mi NW 8.1 mph - N/A   Clear
8:15 PM 84.2 °F 83.8 °F 59.0 °F 42% 29.91 in 10.0 mi NNW 5.8 mph - N/A   Clear
8:35 PM 82.4 °F 82.5 °F 59.0 °F 45% 29.92 in 10.0 mi NW 6.9 mph - N/A   Clear
8:55 PM 78.8 °F - 62.6 °F 57% 29.92 in 10.0 mi WNW 5.8 mph - N/A   Clear
9:15 PM 75.2 °F - 64.4 °F 69% 29.93 in 10.0 mi WNW 5.8 mph - N/A   Clear
9:35 PM 71.6 °F - 62.6 °F 73% 29.93 in 10.0 mi WNW 5.8 mph - N/A   Clear
9:55 PM 71.6 °F - 62.6 °F 73% 29.93 in 10.0 mi Calm Calm - N/A   Clear
10:15 PM 68.0 °F - 62.6 °F 83% 29.94 in 10.0 mi West 3.5 mph - N/A   Clear
10:35 PM 68.0 °F - 64.4 °F 88% 29.94 in 10.0 mi WSW 5.8 mph - N/A   Clear
10:55 PM 68.0 °F - 62.6 °F 83% 29.95 in 10.0 mi West 9.2 mph - N/A   Clear
11:35 PM 68.0 °F - 62.6 °F 83% 29.96 in 10.0 mi WNW 5.8 mph - N/A   Clear
11:55 PM 64.4 °F - 62.6 °F 94% 29.96 in 10.0 mi West 3.5 mph - N/A   Clear